Chattanooga, TN

1:57 PM EDT on August 27, 2016 (GMT -0400)
Lovell

Weather History for KCHA - November, 2012

Change the Weather History Date:

Sunday, November 4, 2012

  Actual Average Record
Temperature  
Mean Temperature 61 °F 55 °F  
Max Temperature 65 °F 67 °F 81 °F (1909)
Min Temperature 56 °F 44 °F 22 °F (1966)
Degree Days  
Heating Degree Days 4 10  
Month to date heating degree days 33 38  
Since 1 July heating degree days 202 210  
Growing Degree Days 4 (Base 50)    
Moisture  
Dew Point 49 °F    
Average Humidity 70    
Maximum Humidity 100    
Minimum Humidity 39    
Precipitation  
Precipitation 0.01 in 0.14 in 1.47 in (1977)
Month to date precipitation 0.08 0.55  
Year to date precipitation 43.74 43.13  
Snow  
Snow 0.00 in 0.00 in - ()
Month to date snowfall 0.0 0.0  
Since 1 July snowfall 0.0 0.0  
Since 1 September snowfall 0.0 0.0  
Snow Depth 0.00 in    
Sea Level Pressure  
Sea Level Pressure 30.04 in    
Wind  
Wind Speed 5 mph (North)    
Max Wind Speed 14 mph    
Max Gust Speed 18 mph    
Visibility 10 miles    
Events Rain    
T = Trace of Precipitation, MM = Missing Value Source: NWS Daily Summary

Daily Weather History Graph

Daily Weather History Graph

Search for Another Location

Airport or City:

Trip Planner

Search our weather history database for the weather conditions in past years. The results will help you decide how hot, cold, wet, or windy it might be!

Date:

Astronomy

Nov. 04, 2012 Rise Set
Actual Time 7:05 AM EST 5:43 PM EST
Civil Twilight 6:38 AM EST 6:09 PM EST
Nautical Twilight 6:08 AM EST 6:39 PM EST
Astronomical Twilight 5:39 AM EST 7:09 PM EST
Moon 10:22 PM EST (11/4) 11:45 AM EST (11/4)
Length of Visible Light 11h 30m
Length of Day
10h 38m
Waning Gibbous, 72% of the Moon is Illuminated
Nov 4
Waning Gibbous
Nov 6
Last Quarter
Nov 13
New
Nov 20
First Quarter
Nov 28
Full

Hourly Weather History & Observations

Time (EST) Temp. Windchill Dew Point Humidity Pressure Visibility Wind Dir Wind Speed Gust Speed Precip Events Conditions
12:53 AM 63.0 °F - 57.9 °F 84% 30.01 in 10.0 mi WSW 6.9 mph - 0.01 in Rain Light Rain
1:53 AM 62.1 °F - 57.0 °F 84% 30.00 in 10.0 mi West 6.9 mph - 0.01 in   Overcast
1:53 AM 62.1 °F - 55.9 °F 80% 30.00 in 10.0 mi Calm Calm - N/A   Mostly Cloudy
2:53 AM 59.0 °F - 55.9 °F 90% 29.98 in 10.0 mi Calm Calm - N/A   Scattered Clouds
3:29 AM 57.2 °F - 57.2 °F 100% 29.99 in 10.0 mi SE 3.5 mph - N/A   Mostly Cloudy
3:53 AM 59.0 °F - 57.0 °F 93% 29.97 in 10.0 mi Calm Calm - N/A   Mostly Cloudy
4:53 AM 59.0 °F - 57.0 °F 93% 29.99 in 10.0 mi Calm Calm - N/A   Overcast
5:15 AM 59.0 °F - 57.2 °F 94% 30.01 in 10.0 mi Calm Calm - N/A   Mostly Cloudy
5:53 AM 57.9 °F - 57.0 °F 97% 30.00 in 10.0 mi Calm Calm - N/A   Mostly Cloudy
6:53 AM 57.0 °F - 57.0 °F 100% 30.00 in 10.0 mi Calm Calm - N/A   Mostly Cloudy
7:53 AM 57.0 °F - 57.0 °F 100% 30.02 in 10.0 mi North 4.6 mph - N/A   Mostly Cloudy
8:53 AM 57.9 °F - 54.0 °F 87% 30.04 in 10.0 mi North 8.1 mph - N/A   Mostly Cloudy
9:12 AM 57.2 °F - 50.0 °F 77% 30.06 in 10.0 mi NNW 8.1 mph - N/A   Mostly Cloudy
9:53 AM 57.9 °F - 46.9 °F 67% 30.06 in 10.0 mi NNW 9.2 mph - N/A   Mostly Cloudy
10:33 AM 57.2 °F - 44.6 °F 63% 30.08 in 10.0 mi North 8.1 mph - N/A   Mostly Cloudy
10:53 AM 57.9 °F - 44.1 °F 60% 30.06 in 10.0 mi North 6.9 mph - N/A   Mostly Cloudy
11:53 AM 61.0 °F - 44.1 °F 54% 30.06 in 10.0 mi North 3.5 mph - N/A   Mostly Cloudy
12:53 PM 62.1 °F - 43.0 °F 50% 30.04 in 10.0 mi NNE 3.5 mph - N/A   Mostly Cloudy
1:53 PM 64.0 °F - 43.0 °F 46% 30.02 in 10.0 mi NNE 9.2 mph - N/A   Mostly Cloudy
2:53 PM 64.0 °F - 42.1 °F 45% 30.02 in 10.0 mi NNE 6.9 mph - N/A   Scattered Clouds
3:53 PM 63.0 °F - 37.9 °F 40% 30.02 in 10.0 mi NNE 12.7 mph - N/A   Scattered Clouds
4:53 PM 60.1 °F - 39.9 °F 47% 30.04 in 10.0 mi North 15.0 mph - N/A   Scattered Clouds
5:53 PM 53.1 °F - 41.0 °F 64% 30.07 in 10.0 mi NNW 9.2 mph - N/A   Scattered Clouds
6:53 PM 48.9 °F - 39.9 °F 71% 30.10 in 10.0 mi NW 9.2 mph - N/A   Scattered Clouds
7:53 PM 48.0 °F - 39.0 °F 71% 30.11 in 10.0 mi NNW 6.9 mph - N/A   Mostly Cloudy
8:53 PM 46.0 °F 44.8 °F 39.0 °F 76% 30.11 in 10.0 mi WNW 3.5 mph - N/A   Partly Cloudy
9:53 PM 44.1 °F - 39.0 °F 82% 30.12 in 10.0 mi Calm Calm - N/A   Clear
10:53 PM 42.1 °F - 39.0 °F 89% 30.11 in 10.0 mi Calm Calm - N/A   Clear